Regional Weather Roundup
Issued by NWS

Home | Current Version | Previous Version | Text Only | Print | Product List | Glossary On
Versions: 1 2 3 4 5 6 7 8 9 10 11 12 13 14 15 16 17 18 19 20 21 22 23 24 25 26 27 28 29 30 31 32 33 34 35 36 37 38 39 40 41 42 43 44 45 46 47 48 49 50
000
ASUS43 KBIS 250310
RWRND

NORTH DAKOTA REGIONAL WEATHER ROUNDUP
NATIONAL WEATHER SERVICE BISMARCK ND
1000 PM CDT FRI JUN 24 2016

NOTE: "FAIR" INDICATES FEW OR NO CLOUDS BELOW 12,000 FEET WITH NO
SIGNIFICANT WEATHER AND/OR OBSTRUCTIONS TO VISIBILITY.


NDZ001>003-009>011-017-250400-
NORTHWEST NORTH DAKOTA

CITY           SKY/WX    TMP DP  RH WIND       PRES   REMARKS
WILLISTON      HVY RAIN  64  57  78 NW23G56   29.75R SQUALL
MINOT          CLEAR     78  69  73 NE9       29.58F
MINOT AFB      PTCLDY    77  69  76 E9        29.58F
$$

NDZ018>021-031>035-040>046-250400-
SOUTHWEST NORTH DAKOTA

CITY           SKY/WX    TMP DP  RH WIND       PRES   REMARKS
BISMARCK       CLEAR     79  70  74 SE9       29.56F
DICKINSON      CLEAR     74  63  68 E3        29.60R
GARRISON         N/A     79  72  79 NE8       29.56F
HETTINGER ARPT PTCLDY    79  58  48 E3        29.63F
$$

NDZ004>008-012>016-024-026-027-054-250400-
NORTHEAST NORTH DAKOTA

CITY           SKY/WX    TMP DP  RH WIND       PRES   REMARKS
GRAND FORKS    PTCLDY    76  65  68 SE15      29.70F
GRND FRKS AFB  CLEAR     75  66  72 SE13      29.70F
DEVILS LAKE    PTCLDY    78  68  71 SE15      29.65F
$$

NDZ022-023-025-028>030-036>039-047>053-250400-
SOUTHEAST NORTH DAKOTA

CITY           SKY/WX    TMP DP  RH WIND       PRES   REMARKS
FARGO          CLEAR     79  65  62 SE22G31   29.71S
JAMESTOWN      CLEAR     82  69  64 S17       29.65F
$$





USA.gov is the U.S. government's official web portal to all federal, state and local government web resources and services.